User: anonymous   Login
Location: Camp Creek
(33.9000°N, 111.8167°W)
Time: 21:23:22
(UTC-07:00)
Language:

Cosmos 1656 - Orbit

View from above orbital plane
View from above orbital plane
View from above satellite
View from above satellite

Ground track
Ground track

The orbit data is extracted from the following two-line orbital elements,

1 15755U 85042A   15185.16009820 -.00000004  00000-0  20135-4 0  9998
2 15755 071.1123 067.5527 0033354 079.7426 280.7459 14.20362878559303
Epoch (UTC): 04 July 2015 03:50:32
Eccentricity: 0.0033354
inclination: 71.1123°
perigee height: 800 km
apogee height: 848 km
right ascension of ascending node: 67.5527°
argument of perigee: 79.7426°
revolutions per day: 14.20362878
mean anomaly at epoch: 280.7459°
orbit number at epoch: 55930

The dashed part of the orbit path shows where the satellite is in the earth's shadow,  

DLR